Flag for Germany Weather past 2 weeks in Königs Wusterhausen, Brandenburg, Germany

Now
32 °F

Clear.


Feels Like: 22 °F
Forecast: 38 / 45 °F
Wind: 13 mph from South

Location: Berlin-Schoenefeld

Current Time: Mar 1, 2015 at 5:33:03 AM

Latest Report: Mar 1, 2015 at 4:50 AM


Visibility: 10 mi

Pressure: 29.80 "Hg

Humidity: 87%

Dew point: 28 °F

Location of Königs WusterhausenLocation

Historic Weather in Königs Wusterhausen — Graph

°F

Königs Wusterhausen temperature yesterday

Maximum temperature yesterday: 45 °F (at 1:50 PM)
Minimum temperature yesterday: 32 °F (at 8:50 PM)
Average temperature yesterday: 38 °F

Past Weeks' High & Low Weather Summary

 TemperatureHumidityPressure
High52 °F (Feb 21, 12:20 PM)100% (Feb 14, 4:20 AM)30.72 "Hg (Feb 14, 4:20 AM)
Low25 °F (Feb 14, 4:50 AM)43% (Feb 27, 1:50 PM)29.39 "Hg (Feb 21, 12:50 PM)
Average36 °F81%30.02 "Hg
* Reported Feb 14 4:20 AM — Mar 1 4:20 AM, Königs Wusterhausen, Weather by CustomWeather, © 2015

Note: Actual official high and low records may vary slightly from our data, if they occured in-between our weather recording intervals... More about our weather records

Advertising

Königs Wusterhausen weather history for previous 24 hours

 ConditionsComfort  
Time TempWeatherWind HumidityBarometerVisibility
4:20 AM
Sun, Mar 1
30 °FClear.12 mph86%29.83 "Hg10 mi
3:50 AM30 °FClear.12 mph86%29.83 "Hg10 mi
3:20 AM30 °FClear.12 mph86%29.86 "Hg10 mi
2:50 AM30 °FClear.10 mph86%29.89 "Hg10 mi
2:20 AM30 °FClear.10 mph86%29.89 "Hg10 mi
1:50 AM30 °FClear.10 mph86%29.92 "Hg10 mi
1:20 AM30 °FClear.10 mph86%29.92 "Hg10 mi
12:50 AM30 °FClear.10 mph86%29.92 "Hg10 mi
12:20 AM32 °FClear.12 mph80%29.95 "Hg10 mi
11:50 PM
Sat, Feb 28
32 °FClear.12 mph80%29.95 "Hg10 mi
11:20 PM32 °FClear.10 mph80%29.98 "Hg10 mi
10:50 PM32 °FClear.9 mph80%30.01 "Hg10 mi
10:20 PM32 °FClear.8 mph80%30.01 "Hg10 mi
9:50 PM32 °FClear.9 mph80%30.01 "Hg10 mi
9:20 PM32 °FClear.8 mph80%30.01 "Hg10 mi
8:50 PM32 °FClear.8 mph80%30.04 "Hg10 mi
8:20 PM34 °FClear.8 mph75%30.04 "Hg10 mi
7:50 PM36 °FClear.8 mph70%30.04 "Hg10 mi
7:20 PM36 °FClear.8 mph70%30.04 "Hg10 mi
6:50 PM37 °FClear.7 mph65%30.07 "Hg10 mi
6:20 PM39 °FClear.5 mph61%30.07 "Hg10 mi
5:50 PM39 °FPassing clouds.3 mph61%30.07 "HgN/A
5:20 PM41 °FPassing clouds.6 mph57%30.07 "HgN/A
4:50 PM43 °FPassing clouds.9 mph57%30.07 "HgN/A
4:20 PM45 °FPassing clouds.8 mph49%30.07 "HgN/A
3:50 PM45 °FPassing clouds.9 mph53%30.07 "HgN/A
3:20 PM45 °FPassing clouds.10 mph53%30.07 "HgN/A
2:50 PM45 °FScattered clouds.9 mph53%30.07 "HgN/A
2:20 PM45 °FScattered clouds.12 mph53%30.07 "HgN/A
1:50 PM45 °FScattered clouds.9 mph53%30.09 "HgN/A
1:20 PM43 °FScattered clouds.9 mph57%30.09 "HgN/A
12:50 PM43 °FScattered clouds.13 mph53%30.09 "HgN/A
12:20 PM43 °FPartly sunny.13 mph57%30.12 "HgN/A
11:50 AM41 °FPartly sunny.12 mph61%30.12 "HgN/A
11:20 AM41 °FPartly sunny.12 mph66%30.12 "HgN/A
10:50 AM41 °FScattered clouds.10 mph70%30.12 "HgN/A
10:20 AM39 °FScattered clouds.10 mph81%30.12 "HgN/A
9:50 AM39 °FScattered clouds.10 mph81%30.12 "HgN/A
9:20 AM37 °FPartly sunny.10 mph87%30.09 "HgN/A
8:50 AM37 °FPartly sunny.9 mph87%30.09 "HgN/A
8:20 AM36 °FBroken clouds.9 mph93%30.09 "HgN/A
7:50 AM36 °FPartly sunny.12 mph93%30.09 "HgN/A
7:20 AM37 °FPartly sunny.13 mph93%30.09 "HgN/A
6:50 AM37 °FLow clouds.13 mph93%30.07 "HgN/A
6:20 AM37 °FLow clouds.13 mph93%30.07 "HgN/A
5:50 AM37 °FLow clouds.12 mph100%30.07 "HgN/A
5:20 AM37 °FPassing clouds.12 mph100%30.04 "HgN/A
Weather by CustomWeather, © 2015

See weather overviewHow to use our weather pages